Tracking 19575 objects as of 18-Feb-2019
HD Live streaming from Space Station
objects crossing your sky now

SUPERBIRD C

Track SUPERBIRD C now!
SUPERBIRD C is classified as:


NORAD ID: 24880
Int'l Code: 1997-036A
Perigee: 36,074.7 km
Apogee: 36,194.1 km
Inclination: 7.7 °
Period: 1,453.5 minutes
Semi major axis: 42505 km
RCS: 12.5892 m2 (large)
Launch date: July 28, 1997
Source: Japan (JPN)
Launch site: AIR FORCE EASTERN TEST RANGE (AFETR)

14 Ku-band; Asia-Pacific region; voice and video communications.
aabbcc
Your satellite tracking list
Your tracking list is empty




NASA's NSSDC Master Catalog

Two Line Element Set (TLE):
1 24880U 97036A   19048.50229184 +.00000004 +00000-0 +00000-0 0  9994
2 24880 007.6692 050.5076 0014040 286.3345 073.6455 00.99068836038355
Source of the keplerian elements: AFSPC